WX5II-2 Weather Reports


Display with metric or nautical units.
time (UTC)temp
F
wind
direction
speed
MPH
gust
MPH
rain 1hr
in
rain 24hr
in
rain mn
in
humidity
%
barometer
mb
20260502161559 67 351 0.0 0.0 0.00 0.00 0.00 35 1022.4
20260502160536 67 351 0.0 0.0 0.00 0.00 0.00 35 1022.4
20260502151342 64 351 0.0 3.0 0.00 0.00 0.00 36 1022.4
20260502150320 63 351 0.0 4.0 0.00 0.00 0.00 36 1022.4
20260502123755 51 347 0.0 0.0 0.00 0.00 0.00 75 1022.4
20260502122733 51 347 0.0 0.0 0.00 0.00 0.00 76 1022.4
20260502121710 51 351 0.0 0.0 0.00 0.00 0.00 83 1022.4
20260502120646 50 347 0.0 0.0 0.00 0.00 0.00 85 1022.4
20260502115624 50 347 0.0 0.0 0.00 0.00 0.00 86 1022.4
20260502114604 49 347 0.0 0.0 0.00 0.00 0.00 86 1022.4
20260502113539 49 347 0.0 0.0 0.00 0.00 0.00 86 1022.4
20260502112516 49 347 0.0 0.0 0.00 0.00 0.00 85 1022.4
20260502111454 49 347 0.0 0.0 0.00 0.00 0.00 84 1021.4
20260502110432 49 347 0.0 0.0 0.00 0.00 0.00 84 1021.4
20260502105410 49 347 0.0 0.0 0.00 0.00 0.00 83 1021.4
20260502104347 49 347 0.0 0.0 0.00 0.00 0.00 82 1021.4
20260502102305 50 347 0.0 4.0 0.00 0.00 0.00 82 1022.4
20260502101241 50 351 0.0 5.0 0.00 0.00 0.00 84 1022.4
20260502100218 50 347 0.0 3.0 0.00 0.00 0.00 84 1022.4
20260502070557 52 347 0.0 0.0 0.00 0.00 0.00 71 1020.4
20260502065534 52 347 0.0 0.0 0.00 0.00 0.00 70 1020.4
20260502064512 52 351 0.0 0.0 0.00 0.00 0.00 70 1020.4
20260502063449 53 351 0.0 0.0 0.00 0.00 0.00 70 1020.4
20260502062428 53 351 0.0 0.0 0.00 0.00 0.00 69 1020.4
20260502061405 53 351 0.0 0.0 0.00 0.00 0.00 69 1020.4
20260502060342 53 351 0.0 0.0 0.00 0.00 0.00 68 1020.4
20260502055320 53 351 0.0 0.0 0.00 0.00 0.00 67 1020.4
20260502054257 53 351 0.0 0.0 0.00 0.00 0.00 67 1020.4
20260502053236 53 351 0.0 0.0 0.00 0.00 0.00 67 1020.4
20260502052212 53 351 0.0 0.0 0.00 0.00 0.00 66 1020.4
20260502051150 54 351 0.0 0.0 0.00 0.00 0.00 65 1020.4
20260502050127 54 351 0.0 0.0 0.00 0.00 0.00 65 1020.4
20260502045106 54 351 0.0 0.0 0.00 0.00 0.00 65 1020.4
20260502044042 54 351 0.0 0.0 0.00 0.00 0.00 64 1020.4
20260502043020 55 351 0.0 0.0 0.00 0.00 0.00 64 1019.4
20260502041958 55 351 0.0 0.0 0.00 0.00 0.00 65 1019.4
20260502040935 55 351 0.0 0.0 0.00 0.00 0.00 65 1019.4
20260502035912 55 347 0.0 3.0 0.00 0.00 0.00 67 1019.4
20260502034849 56 351 0.0 3.0 0.00 0.00 0.00 69 1019.4
20260502033827 56 351 0.0 0.0 0.00 0.00 0.00 71 1019.4
20260502032804 56 351 0.0 0.0 0.00 0.00 0.00 70 1019.4
20260502031742 57 347 0.0 0.0 0.00 0.00 0.00 69 1018.4
20260502030719 57 351 0.0 4.0 0.00 0.00 0.00 68 1018.4
20260502025657 57 347 0.0 3.0 0.00 0.00 0.00 68 1018.4
20260502024631 58 347 3.0 4.0 0.00 0.00 0.00 69 1017.4
20260502023608 58 351 0.0 4.0 0.00 0.00 0.00 67 1017.4
20260502022547 58 351 0.0 3.0 0.00 0.00 0.00 68 1017.4
20260502021523 59 347 0.0 0.0 0.00 0.00 0.00 68 1016.4
20260502020501 59 351 3.0 4.0 0.00 0.00 0.00 67 1016.4
20260502015439 59 351 0.0 0.0 0.00 0.00 0.00 66 1016.4
20260502014415 59 351 3.0 4.0 0.00 0.00 0.00 65 1016.4
20260502012330 60 351 3.0 4.0 0.00 0.00 0.00 67 1015.4
20260502011307 60 351 3.0 3.0 0.00 0.00 0.00 67 1015.4
20260502010245 60 351 0.0 3.0 0.00 0.00 0.00 67 1015.4
20260502005222 61 351 0.0 3.0 0.00 0.00 0.00 65 1014.4
20260502004159 61 351 0.0 3.0 0.00 0.00 0.00 67 1014.4
20260502003137 62 351 0.0 3.0 0.00 0.00 0.00 66 1014.4
20260502002114 62 351 0.0 3.0 0.00 0.00 0.00 67 1014.4
20260502001051 62 351 0.0 3.0 0.00 0.00 0.00 66 1014.4
20260502000028 62 351 0.0 4.0 0.00 0.00 0.00 69 1014.4
20260501235006 62 351 0.0 4.0 0.00 0.00 0.00 70 1013.4
20260501233943 63 351 0.0 4.0 0.00 0.00 0.00 69 1013.4
20260501232922 63 351 0.0 4.0 0.00 0.00 0.00 70 1013.4
20260501231858 63 351 3.0 4.0 0.00 0.00 0.00 70 1012.4
20260501230835 64 351 0.0 5.0 0.00 0.00 0.00 67 1012.4
20260501225812 64 347 0.0 0.0 0.00 0.00 0.00 67 1012.4
20260501224749 64 347 0.0 3.0 0.00 0.00 0.00 70 1012.4
20260501223727 64 347 0.0 3.0 0.00 0.00 0.00 73 1012.4
20260501222704 65 347 0.0 4.0 0.00 0.00 0.00 75 1012.4
20260501221641 65 347 0.0 3.0 0.00 0.00 0.00 74 1011.4
20260501220618 65 347 0.0 4.0 0.00 0.00 0.00 80 1011.4
20260501215556 65 347 3.0 0.0 0.00 0.00 0.00 83 1011.4
20260501214533 65 347 0.0 3.0 0.00 0.00 0.00 87 1012.4
20260501213510 64 347 0.0 3.0 0.00 0.00 0.00 88 1012.4
20260501212448 65 347 0.0 3.0 0.00 0.00 0.00 89 1012.4
20260501211425 64 346 0.0 0.0 0.00 0.00 0.00 83 1012.4
20260501210402 65 346 0.0 5.0 0.00 0.00 0.00 79 1012.4
20260501205339 65 346 0.0 4.0 0.00 0.00 0.00 86 1012.4
20260501204318 66 346 0.0 0.0 0.00 0.00 0.00 90 1012.4
20260501203254 66 346 0.0 0.0 0.00 0.00 0.00 91 1012.4
20260501202231 66 346 0.0 0.0 0.00 0.00 0.00 90 1012.4
20260501201210 65 346 0.0 0.0 0.00 0.00 0.00 88 1012.4
20260501200147 65 346 0.0 0.0 0.00 0.00 0.00 87 1013.4
20260501195123 65 346 0.0 0.0 0.00 0.00 0.00 86 1013.4
20260501194100 65 346 0.0 3.0 0.00 0.00 0.00 82 1013.4
20260501193039 65 345 0.0 0.0 0.00 0.00 0.00 80 1013.4
20260501192016 65 346 0.0 3.0 0.00 0.00 0.00 76 1012.4
20260501190952 65 346 0.0 0.0 0.00 0.00 0.00 72 1012.4
20260501185931 65 346 0.0 0.0 0.00 0.00 0.00 77 1012.4
20260501184907 65 346 0.0 0.0 0.00 0.00 0.00 78 1012.4
20260501183845 65 346 0.0 3.0 0.00 0.00 0.00 78 1011.4
20260501181800 65 345 0.0 3.0 0.00 0.00 0.00 95 1011.4
20260501180737 66 345 0.0 4.0 0.00 0.00 0.00 96 1011.4
20260501175715 66 344 0.0 4.0 0.00 0.00 0.00 96 1011.4
20260501174652 65 344 0.0 3.0 0.00 0.00 0.00 95 1012.4
20260501173628 65 345 0.0 0.0 0.00 0.00 0.00 95 1012.4
20260501172606 64 345 0.0 0.0 0.00 0.00 0.00 94 1012.4
20260501171544 63 345 0.0 0.0 0.00 0.00 0.00 92 1012.4
20260501170521 62 346 0.0 0.0 0.00 0.00 0.00 91 1013.4
20260501164515 62 346 0.0 0.0 0.00 0.00 0.00 90 1013.4
20260501164437 62 346 0.0 0.0 0.00 0.00 0.00 90 1013.4
20260501163413 62 346 0.0 3.0 0.00 0.00 0.00 90 1014.4